Regional Weather Roundup
Issued by NWS

Home | Current Version | Previous Version | Text Only | Print | Product List | Glossary On
Versions: 1 2 3 4 5 6 7 8 9 10 11 12 13 14 15 16 17 18 19 20 21 22 23 24 25 26 27 28 29 30 31 32 33 34 35 36 37 38 39 40 41 42 43 44 45 46 47 48 49 50
000
ASUS45 KBOU 190707
RWRCO

WEATHER ROUNDUP FOR COLORADO
NATIONAL WEATHER SERVICE DENVER/BOULDER CO
100 AM MDT THU OCT 19 2017

NOTE: "FAIR" INDICATES FEW OR NO CLOUDS BELOW 12000 FEET WITH NO
SIGNIFICANT WEATHER AND/OR OBSTRUCTIONS TO VISIBILITY.

COZ001>005-013-030-031-190800-
...NORTHWEST COLORADO...

CITY           SKY/WX    TMP DP  RH WIND       PRES   REMARKS
CRAIG          FAIR      27  19  72 CALM      30.19F
HAYDEN         FAIR      42  15  33 E15       30.21F
MEEKER         FAIR      35  17  47 E3        30.20F
RABBIT EARS PA FAIR      43   9  24 S5        30.40S
STEAMBOAT SPGS FAIR      37  15  41 CALM      30.23S
WALDEN         NOT AVBL
$$

COZ006>008-011-190800-
...WEST CENTRAL VALLEYS...

CITY           SKY/WX    TMP DP  RH WIND       PRES   REMARKS
GRAND JUNCTION FAIR      51  17  26 SE10      30.12S
MONTROSE       FAIR      42  20  41 SE7       30.19F
EAGLE          FAIR      33  17  51 SE6       30.27S WCI  28
RIFLE          FAIR      40  18  41 SE5       30.18S
DELTA          FAIR      45  18  33 NE7       30.16F
NUCLA          FAIR      46  14  27 E8        30.20F
$$

COZ017>023-064>068-190800-
...SOUTHWEST COLORADO...

CITY           SKY/WX    TMP DP  RH WIND       PRES   REMARKS
DURANGO        FAIR      40  23  50 CALM      30.22S
CORTEZ         FAIR      37  26  64 NE7       30.17F
PAGOSA SPRINGS FAIR      37  16  42 CALM      30.28F
TELLURIDE      NOT AVBL
WOLF CREEK PAS FAIR      37  10  32 SW8       30.54F
$$

COZ009-010-012-014-032>034-037-058>063-190800-
...CENTRAL COLORADO...

CITY           SKY/WX    TMP DP  RH WIND       PRES   REMARKS
ASPEN          FAIR      36  15  42 CALM      30.27F
BUENA VISTA    FAIR      34  13  41 NW3       30.32S
COPPER MTN     FAIR      45   1  16 S16       30.49F
BERTHOUD PASS  FAIR      36  27  69 W7        30.51F
COTTONWOOD PAS FAIR      52  -2  11 CALM      30.39F
GUNNISON       FAIR      31  13  47 NE5       30.32F WCI  26
KREMMLING      FAIR      32  21  64 CALM      30.30F
LEADVILLE      FAIR      31   6  35 NE5       30.39S WCI  26
MONARCH PASS   FAIR      39   3  22 S10       30.60F
SALIDA         NOT AVBL
SUNLIGHT       FAIR      39  -2  17 SE3       30.45F
WILKERSON PASS FAIR      37   3  23 SW8       30.48F
$$

COZ069>075-190800-
...SAN LUIS VALLEY/SANGRE DE CRISTO MOUNTAINS...

CITY           SKY/WX    TMP DP  RH WIND       PRES   REMARKS
ALAMOSA        FAIR      28  16  60 CALM      30.28S
DEL NORTE      FAIR      40  14  35 NW6       30.31S
LA VETA PASS   FAIR      46  14  27 S5        30.51F
SAGUACHE       FAIR      39  12  33 N15       30.30F
$$

COZ035-036-038>040-190800-
...NORTHERN COLORADO FRONT RANGE...

CITY           SKY/WX    TMP DP  RH WIND       PRES   REMARKS
DENVER INTL AP FAIR      49  25  39 S14       30.12F
DMNS CITY PARK   N/A     52  18  26 SE7       30.12S
AURORA         PTCLDY    55  24  30 S15       30.13F
FRONT RANGE AP FAIR      52  27  37 S15G22    30.13F
ERIE MUNI ARPT FAIR      40  28  61 SW3       30.16S
BOULDER MUN AP FAIR      46  27  46 S3        30.11S
CENTENNIAL     FAIR      55  23  28 S12       30.15F
BROOMFIELD     FAIR      52  19  28 N7        30.13F
FORT COLLINS   FAIR      45  30  55 N9        30.11F
LONGMONT       FAIR      42  29  60 SW3       30.13S HAZE
$$

COZ041-046-047-076>085-087-088-190800-
...PIKES PEAK/PALMER DIVIDE AND SOUTHERN FOOTHILLS...

CITY           SKY/WX    TMP DP  RH WIND       PRES   REMARKS
COLO. SPRINGS  FAIR      44  25  47 N6        30.22F
A. F. ACADEMY  FAIR      38  22  52 N8        30.22F
SCHRIEVER AFB  FAIR      49  20  31 N5        30.21F
CHEYENNE MTN   NOT AVBL
ELLICOTT         N/A    N/A N/A N/A E12       30.19F
FALCON         FAIR      44  19  37 CALM      30.25F
FORT CARSON    FAIR      45  23  43 NW7       30.18F
LIMON          FAIR      30  26  85 CALM      30.17F
MONUMENT HILL  FAIR      45  19  36 S14       30.24F
CANON CITY     CLEAR     48  21  34 W12       30.17S
WALSENBURG     FAIR      46  19  34 SW12      30.18F
TRINIDAD       FAIR      49  21  33 W13       30.17F
$$

COZ042>045-048>051-090-091-190800-
...NORTHEAST COLORADO...

CITY           SKY/WX    TMP DP  RH WIND       PRES   REMARKS
GREELEY ARPT   FAIR      36  30  79 NW3       30.10F
AKRON          FAIR      49  28  44 S14       30.11F
BURLINGTON     FAIR      44  33  65 S10       30.12F
WRAY           FAIR      46  32  57 S6        30.12S
YUMA           NOT AVBL
STERLING       NOT AVBL
HOLYOKE        FAIR      41  34  75 SW5       30.12R
FORT MORGAN    FAIR      41  24  49 N6        30.12S
$$

COZ086-089-092>099-190800-
...SOUTHEAST COLORADO...

CITY           SKY/WX    TMP DP  RH WIND       PRES   REMARKS
PUEBLO         FAIR      44  30  57 W5        30.13S
LA JUNTA       FAIR      47  30  51 NW5       30.11S
LAMAR          FAIR      45  29  53 CALM      30.08S HAZE
SPRINGFIELD      N/A     42  36  79 W3        30.11S
$$



USA.gov is the U.S. government's official web portal to all federal, state and local government web resources and services.